• In Portugal
  • List of Countries
  • For 7 days
  • Water Temperature
  • Satellite Maps
  • Weather Map
  • Weather Widgets
  • user-avatar
    Login

    Hourly Weather Budzisz

    Today, 23 October, Tuesday

    Time Temperature Precipitation Wind Pressure Humidity
    00:00 +5°C° 0 mm 5 mps 760 mmHg 86%
    01:00 +5°C° 0 mm 5 mps 760 mmHg 87%
    02:00 +5°C° 0 mm 5 mps 759 mmHg 86%
    03:00 +4°C° 0 mm 6 mps 758 mmHg 86%
    04:00 +4°C° 0 mm 7 mps 757 mmHg 85%
    05:00 +4°C° 0.5 mm 7 mps 755 mmHg 84%
    06:00 +4°C° 0.5 mm 8 mps 754 mmHg 82%
    07:00 +3°C° 0.5 mm 9 mps 752 mmHg 81%
    08:00 +5°C° 0.9 mm 10 mps 751 mmHg 80%
    09:00 +4°C° 0.9 mm 11 mps 749 mmHg 80%
    10:00 +4°C° 0.9 mm 11 mps 748 mmHg 79%
    11:00 +6°C° 1.2 mm 11 mps 746 mmHg 80%
    12:00 +7°C° 1.2 mm 11 mps 745 mmHg 82%
    13:00 +7°C° 1.2 mm 10 mps 744 mmHg 83%
    14:00 +8°C° 0.8 mm 10 mps 743 mmHg 79%
    15:00 +8°C° 0.8 mm 9 mps 742 mmHg 76%
    16:00 +10°C° 0.8 mm 9 mps 742 mmHg 73%
    17:00 +8°C° 0.1 mm 9 mps 741 mmHg 73%
    18:00 +7°C° 0.1 mm 8 mps 741 mmHg 73%
    19:00 +7°C° 0.1 mm 8 mps 741 mmHg 74%
    20:00 +7°C° 0.1 mm 8 mps 740 mmHg 73%
    21:00 +6°C° 0.1 mm 8 mps 740 mmHg 73%
    22:00 +6°C° 0.1 mm 8 mps 740 mmHg 73%
    23:00 +6°C° 0.2 mm 8 mps 739 mmHg 70%

    Tomorrow, 24 October, Wednesday

    Time Temperature Precipitation Wind Pressure Humidity
    00:00 +6°C° 0.2 mm 8 mps 739 mmHg 68%
    01:00 +5°C° 0.2 mm 9 mps 738 mmHg 65%
    02:00 +5°C° 0.4 mm 9 mps 739 mmHg 64%
    03:00 +5°C° 0.4 mm 10 mps 739 mmHg 63%
    04:00 +3°C° 0.4 mm 11 mps 740 mmHg 61%
    05:00 +3°C° 0.1 mm 10 mps 740 mmHg 60%
    06:00 +2°C° 0.1 mm 10 mps 741 mmHg 58%
    07:00 +2°C° 0.1 mm 10 mps 742 mmHg 57%
    08:00 +3°C° 0.1 mm 11 mps 743 mmHg 57%
    09:00 +3°C° 0.1 mm 12 mps 743 mmHg 57%
    10:00 +4°C° 0.1 mm 13 mps 743 mmHg 57%
    11:00 +4°C° 0.2 mm 13 mps 744 mmHg 57%
    12:00 +4°C° 0.2 mm 13 mps 745 mmHg 57%
    13:00 +5°C° 0.2 mm 14 mps 745 mmHg 57%
    14:00 +5°C° 0.1 mm 13 mps 746 mmHg 57%
    15:00 +4°C° 0.1 mm 12 mps 747 mmHg 57%
    16:00 +4°C° 0.1 mm 11 mps 748 mmHg 57%
    17:00 +4°C° 0.1 mm 11 mps 749 mmHg 58%
    18:00 +5°C° 0.1 mm 10 mps 749 mmHg 59%
    19:00 +5°C° 0.1 mm 9 mps 750 mmHg 60%
    20:00 +5°C° 0.1 mm 8 mps 750 mmHg 62%
    21:00 +4°C° 0.1 mm 8 mps 751 mmHg 64%
    22:00 +4°C° 0.1 mm 7 mps 751 mmHg 66%
    23:00 +4°C° 0 mm 6 mps 751 mmHg 68%

    Day after tomorrow, 25 October, Thursday

    Time Temperature Precipitation Wind Pressure Humidity
    00:00 +3°C° 0 mm 6 mps 751 mmHg 70%
    01:00 +3°C° 0 mm 5 mps 751 mmHg 72%
    02:00 +3°C° 0 mm 5 mps 750 mmHg 73%
    03:00 +2°C° 0 mm 5 mps 750 mmHg 75%
    04:00 +2°C° 0 mm 5 mps 749 mmHg 76%
    05:00 +3°C° 0.6 mm 6 mps 748 mmHg 80%
    06:00 +3°C° 0.6 mm 6 mps 747 mmHg 84%
    07:00 +4°C° 0.6 mm 7 mps 746 mmHg 87%
    08:00 +5°C° 0.8 mm 8 mps 745 mmHg 81%
    09:00 +7°C° 0.8 mm 9 mps 744 mmHg 75%
    10:00 +9°C° 0.8 mm 10 mps 744 mmHg 70%
    11:00 +9°C° 0.1 mm 10 mps 744 mmHg 67%
    12:00 +9°C° 0.1 mm 10 mps 744 mmHg 65%
    13:00 +9°C° 0.1 mm 10 mps 744 mmHg 63%
    14:00 +10°C° 0.1 mm 9 mps 744 mmHg 64%
    15:00 +9°C° 0.1 mm 8 mps 745 mmHg 66%
    16:00 +8°C° 0.1 mm 7 mps 745 mmHg 68%
    17:00 +8°C° 0 mm 7 mps 746 mmHg 71%
    18:00 +7°C° 0 mm 6 mps 746 mmHg 73%
    19:00 +7°C° 0 mm 6 mps 747 mmHg 76%
    20:00 +7°C° 0 mm 6 mps 747 mmHg 77%
    21:00 +7°C° 0 mm 5 mps 747 mmHg 79%
    22:00 +6°C° 0 mm 5 mps 748 mmHg 80%
    23:00 +6°C° 0 mm 5 mps 748 mmHg 82%

    26 October, Friday

    Time Temperature Precipitation Wind Pressure Humidity
    00:00 +6°C° 0 mm 5 mps 748 mmHg 83%
    01:00 +6°C° 0 mm 5 mps 749 mmHg 85%
    02:00 +6°C° 0 mm 5 mps 749 mmHg 86%
    03:00 +5°C° 0 mm 4 mps 749 mmHg 88%
    04:00 +5°C° 0 mm 4 mps 749 mmHg 90%
    05:00 +5°C° 0 mm 4 mps 749 mmHg 89%
    06:00 +6°C° 0 mm 4 mps 749 mmHg 89%
    07:00 +6°C° 0 mm 4 mps 749 mmHg 88%
    08:00 +7°C° 0.1 mm 4 mps 749 mmHg 84%
    09:00 +7°C° 0.1 mm 5 mps 749 mmHg 80%
    10:00 +8°C° 0.1 mm 5 mps 749 mmHg 76%
    11:00 +9°C° 0.1 mm 5 mps 749 mmHg 73%
    12:00 +9°C° 0.1 mm 5 mps 749 mmHg 70%
    13:00 +10°C° 0.1 mm 5 mps 749 mmHg 66%
    14:00 +9°C° 0 mm 5 mps 748 mmHg 69%
    15:00 +8°C° 0 mm 4 mps 748 mmHg 71%
    16:00 +8°C° 0 mm 4 mps 748 mmHg 73%
    17:00 +8°C° 0.2 mm 4 mps 747 mmHg 76%
    18:00 +8°C° 0.2 mm 5 mps 747 mmHg 80%
    19:00 +8°C° 0.2 mm 5 mps 747 mmHg 83%
    20:00 +8°C° 0.2 mm 6 mps 746 mmHg 84%
    21:00 +8°C° 0.2 mm 6 mps 746 mmHg 85%
    22:00 +8°C° 0.2 mm 6 mps 745 mmHg 86%
    23:00 +8°C° 0.1 mm 6 mps 745 mmHg 86%

    27 October, Saturday

    Time Temperature Precipitation Wind Pressure Humidity
    00:00 +8°C° 0.1 mm 6 mps 744 mmHg 85%
    01:00 +9°C° 0.1 mm 6 mps 744 mmHg 84%
    02:00 +8°C° 0.1 mm 6 mps 743 mmHg 85%
    03:00 +8°C° 0.1 mm 6 mps 743 mmHg 85%
    04:00 +8°C° 0.1 mm 6 mps 743 mmHg 85%
    05:00 +8°C° 0 mm 6 mps 743 mmHg 84%
    06:00 +7°C° 0 mm 6 mps 743 mmHg 83%
    07:00 +7°C° 0 mm 6 mps 743 mmHg 81%
    08:00 +6°C° 0 mm 7 mps 743 mmHg 76%
    09:00 +6°C° 0 mm 8 mps 744 mmHg 70%
    10:00 +7°C° 0 mm 8 mps 744 mmHg 64%
    11:00 +7°C° 0 mm 8 mps 744 mmHg 62%
    12:00 +7°C° 0 mm 8 mps 744 mmHg 60%
    13:00 +7°C° 0 mm 8 mps 744 mmHg 58%
    14:00 +6°C° 0 mm 7 mps 744 mmHg 59%
    15:00 +7°C° 0 mm 6 mps 744 mmHg 60%
    16:00 +7°C° 0 mm 6 mps 744 mmHg 60%
    17:00 +5°C° 0 mm 6 mps 745 mmHg 61%
    18:00 +5°C° 0 mm 6 mps 745 mmHg 61%
    19:00 +5°C° 0 mm 6 mps 745 mmHg 62%
    20:00 +5°C° 0 mm 6 mps 745 mmHg 62%
    21:00 +5°C° 0 mm 5 mps 745 mmHg 63%
    22:00 +5°C° 0 mm 5 mps 745 mmHg 64%
    23:00 +5°C° 0 mm 5 mps 745 mmHg 65%

    28 October, Sunday

    Time Temperature Precipitation Wind Pressure Humidity
    00:00 +5°C° 0 mm 5 mps 745 mmHg 66%
    01:00 +5°C° 0 mm 4 mps 745 mmHg 67%
    02:00 +4°C° 0 mm 4 mps 745 mmHg 69%
    03:00 +4°C° 0 mm 4 mps 745 mmHg 71%
    04:00 +4°C° 0 mm 3 mps 745 mmHg 74%
    05:00 +3°C° 0 mm 3 mps 745 mmHg 75%
    06:00 +3°C° 0 mm 3 mps 745 mmHg 77%
    07:00 +3°C° 0 mm 3 mps 745 mmHg 79%
    08:00 +4°C° 0 mm 3 mps 745 mmHg 76%
    09:00 +5°C° 0 mm 3 mps 746 mmHg 74%
    10:00 +6°C° 0 mm 4 mps 746 mmHg 71%
    11:00 +6°C° 0 mm 4 mps 746 mmHg 70%
    12:00 +6°C° 0 mm 4 mps 746 mmHg 69%
    13:00 +6°C° 0 mm 5 mps 746 mmHg 68%
    14:00 +6°C° 0.2 mm 4 mps 747 mmHg 68%
    15:00 +6°C° 0.2 mm 4 mps 747 mmHg 68%
    16:00 +5°C° 0.2 mm 4 mps 747 mmHg 69%
    17:00 +5°C° 0.1 mm 4 mps 748 mmHg 70%
    18:00 +4°C° 0.1 mm 4 mps 749 mmHg 72%
    19:00 +3°C° 0.1 mm 4 mps 749 mmHg 73%
    20:00 +3°C° 0 mm 4 mps 750 mmHg 73%
    21:00 +3°C° 0 mm 4 mps 750 mmHg 73%
    22:00 +3°C° 0 mm 4 mps 751 mmHg 73%
    23:00 +1°C° 0 mm 4 mps 751 mmHg 73%

    29 October, Monday

    Time Temperature Precipitation Wind Pressure Humidity
    00:00 +1°C° 0 mm 4 mps 751 mmHg 73%
    01:00 +1°C° 0 mm 5 mps 751 mmHg 72%
    02:00 +1°C° 0.1 mm 5 mps 752 mmHg 75%
    03:00 +2°C° 0.1 mm 5 mps 752 mmHg 77%
    04:00 +2°C° 0.1 mm 5 mps 752 mmHg 80%
    05:00 +2°C° 0 mm 5 mps 753 mmHg 81%
    06:00 +3°C° 0 mm 4 mps 753 mmHg 83%
    07:00 +3°C° 0 mm 4 mps 754 mmHg 85%
    08:00 +4°C° 0 mm 4 mps 754 mmHg 80%
    09:00 +5°C° 0 mm 4 mps 755 mmHg 75%
    10:00 +6°C° 0 mm 4 mps 755 mmHg 69%
    11:00 +6°C° 0 mm 4 mps 755 mmHg 65%
    12:00 +7°C° 0 mm 4 mps 755 mmHg 61%
    13:00 +7°C° 0 mm 4 mps 755 mmHg 58%
    14:00 +6°C° 0 mm 4 mps 755 mmHg 61%
    15:00 +5°C° 0 mm 3 mps 755 mmHg 65%
    16:00 +5°C° 0 mm 3 mps 755 mmHg 68%
    17:00 +4°C° 0 mm 3 mps 755 mmHg 70%
    18:00 +4°C° 0 mm 3 mps 755 mmHg 72%
    19:00 +4°C° 0 mm 2 mps 756 mmHg 73%
    20:00 +4°C° 0 mm 2 mps 756 mmHg 73%
    21:00 +4°C° 0 mm 2 mps 756 mmHg 74%
    22:00 +4°C° 0 mm 2 mps 755 mmHg 74%
    23:00 +4°C° 0.1 mm 2 mps 755 mmHg 75%
    Show more